Weather in Staraya Kriusha

Russia / Voronezh Oblast     50°12′23″N   41°09′36″E
temp.,
°C
wind,
m/s
gust,
m/s
humid.,
%
clouds,
%
prec.,
mm/h
press.,
hPa
HPBL,
m
27 february, sat
sat2700:00+3w61299100 0.2 1010336
03:00+2w61297100 0.3 1010381
06:00+1w51097100 0.0 1009350
09:00+2w61296100 0.1 1009517
12:00+3wnw71082100 0.1 1009995
15:00+3wnw7118498 0.2 1009878
18:00+1wnw6139581 0.0 1009629
21:00+1nw6129190 0.1 1011653
28 february, sun
sun2800:00−1nnw598396 0.1 1012503
03:00−3nnw487956 0.1 1014470
06:00−4nnw36790 0.0 1015446
09:00−4nnw46767 0.0 1016493
12:00−1nw467159 0.0 1016628
15:00+1nw577070 0.0 1016814
18:00−1nw248377 0.0 1016107
21:00−1wnw119485 0.0 101836
1 march, mon
mon100:00−1wsw129894 0.5 101860
03:00−1nne129894 0.9 102089
06:00−4ne359297 0.1 1022248
09:00−4nne348487 0.1 1024337
12:00−2nne337082 0.0 1025514
15:00−1n336464 0.0 1026728
18:00−3nnw117440 0.0 102622
21:00−3wnw127720 0.0 102740
2 march, tue
tue200:00−3w35810 0.0 1026186
03:00−3wsw598337 0.0 1024438
06:00−2wsw61282100 0.0 1022577
09:00−1wsw81374100 0.0 1019683
12:000wsw101594100 0.6 1016799
15:00+1w91497100 2.7 1013775
18:00+1nw71293100 0.5 1012711
21:00−1nw5139077 0.5 1014495
3 march, wed
wed300:00−1nw6128792 0.1 1014497
03:00−2wnw5118986 0.1 1014382
06:00−1wnw6119546 0.1 1014565
09:00−1nw7107971 0.2 10151089
12:000nnw7980100 0.4 10161062
15:000nnw71070100 0.8 10171328
18:00−2nnw6117156 0.1 1018885
21:00−2nnw5118041 0.1 1021895